Location: Donald C. Martin Observatory
(38.3885°N, 82.3916°W)
Time: 07:16:34
(UTC-05:00)

Cosmos 1484 Rocket - Visible Passes

Search period start: 21 November 2017 00:00
Search period end: 01 December 2017 00:00
Orbit: 508 x 561 km, 97.3° (Epoch: 21 November)

Date Brightness Start Highest point End Pass type
(mag) Time Alt. Az. Time Alt. Az. Time Alt. Az.
21 Nov 5.1 06:06:03 10° NE 06:09:34 29° E 06:13:03 10° SSE visible
21 Nov 4.0 18:21:09 10° S 18:24:49 44° W 18:28:34 10° NNW visible
22 Nov 5.6 05:57:15 10° NE 06:00:28 23° E 06:03:39 10° SSE visible
22 Nov 3.4 18:11:57 10° S 18:15:44 59° W 18:19:36 10° NNW visible
23 Nov 5.9 05:48:34 10° NE 05:51:21 18° E 05:54:06 10° SE visible
23 Nov 2.9 18:02:49 10° S 18:06:39 78° WSW 18:10:36 10° NNW visible
24 Nov 6.2 05:40:04 10° ENE 05:42:13 14° E 05:44:21 10° SE visible
24 Nov 2.7 17:53:46 10° SSE 17:57:36 80° ENE 18:01:33 10° N visible
25 Nov 6.4 05:32:02 10° ENE 05:33:04 11° E 05:34:06 10° ESE visible
25 Nov 2.8 17:44:45 10° SSE 17:48:34 61° ENE 17:52:27 10° N visible
26 Nov 3.1 17:35:49 10° SSE 17:39:31 46° ENE 17:43:20 10° N visible
26 Nov 6.3 19:13:03 10° WSW 19:14:14 11° W 19:15:25 10° WNW visible
27 Nov 2.8 06:45:41 10° N 06:49:43 86° WNW 06:53:40 10° SSW visible
27 Nov 6.1 19:02:53 10° SW 19:05:05 14° W 19:07:17 10° WNW visible
28 Nov 3.1 06:36:38 10° NNE 06:40:39 73° ESE 06:44:35 10° S visible
28 Nov 5.7 18:53:10 10° SW 18:55:57 18° W 18:58:45 10° NW visible
29 Nov 3.7 06:27:37 10° NNE 06:31:34 55° E 06:35:27 10° S visible
29 Nov 5.3 18:43:39 10° SSW 18:46:49 24° W 18:50:02 10° NW visible
30 Nov 4.2 06:18:40 10° NNE 06:22:30 42° E 06:26:14 10° S visible
30 Nov 4.9 18:34:14 10° SSW 18:37:42 30° W 18:41:14 10° NNW visible
